Weather in Vorga

Russia / Smolensk Oblast     53°45′24″N   32°44′41″E
temp.,
°C
wind,
m/s
gust,
m/s
humid.,
%
clouds,
%
prec.,
mm/h
press.,
hPa
HPBL,
m
6 march, sat
sat600:00−7nw399046 0.0 1017336
03:00−6nw389453 0.1 1019341
06:00−9wnw249656 0.0 102095
09:00−9nw368429 0.0 1021209
12:00−4nw36670 0.0 1021841
15:00−3wnw46629 0.1 10201493
18:00−5w387956 0.1 1019306
21:00−8wsw398628 0.1 1019234
7 march, sun
sun700:00−7wsw4128223 0.0 1017433
03:00−6sw6148560 0.0 1013621
06:00−4sw71679100 0.0 1009961
09:00−3wsw91785100 0.1 10041194
12:000wsw101888100 1.0 10001409
15:00−1wnw81592100 4.3 10011228
18:00−3w6148056 0.3 10021237
21:00−6wsw4157331 0.3 1002621
8 march, mon
mon800:00−4wsw716740 0.0 10011237
03:00−8wnw6137033 0.2 10031059
06:00−10wnw614790 0.0 1005769
09:00−9nw5118513 0.0 1008600
12:00−6wnw59735 0.0 1009928
15:00−5wnw587725 0.1 10101108
18:00−6nw3884100 0.1 1011710
21:00−8wnw259699 0.2 1013110
9 march, tue
tue900:00−10nnw249587 0.1 101596
03:00−11nnw259493 0.1 1016198
06:00−11nnw3794100 0.0 1017274
09:00−10nnw3788100 0.0 1019421
12:00−9nnw467581 0.0 1020823
15:00−8nnw467474 0.0 1021855
18:00−9nw258569 0.0 1021384
21:00−12w229245 0.0 102323
10 march, wed
wed1000:00−11wsw239188 0.0 102387
03:00−10sw498391 0.0 1022353
06:00−8wsw41186100 0.6 1021515
09:00−7w51182100 0.6 1020548
12:00−4w5974100 0.0 1021779
15:00−2wnw4772100 0.0 10211007
18:00−4wnw2784100 0.1 1022441
21:00−9e369599 0.3 1023191